This is the latest recevied weather packets stored in our database for station/object N5KJT. If no packets are shown the sender has not sent any weather packets the latest 10 day(s).
| Time | Temp. | Humidity | Pressure | Rain* | Wind** | Luminosity | Snow |
|---|---|---|---|---|---|---|---|
| 1787894416 | 21.11° C | 53% | 1028.9 hPa | 0 mm | - | 0 W/m² | - |
| 1787894116 | 21.67° C | 53% | 1028.9 hPa | 0 mm | - | 0 W/m² | - |
| 1787893816 | 21.67° C | 52% | 1028.8 hPa | 0 mm | - | 0 W/m² | - |
| 1787893515 | 21.67° C | 52% | 1028.7 hPa | 0 mm | - | 0 W/m² | - |
| 1787893216 | 22.22° C | 52% | 1028.7 hPa | 0 mm | - | 0 W/m² | - |
| 1787892916 | 22.22° C | 50% | 1028.7 hPa | 0 mm | - | 0 W/m² | - |
| 1787892616 | 22.22° C | 50% | 1028.7 hPa | 0 mm | - | 0 W/m² | - |
| 1787892315 | 22.78° C | 49% | 1028.7 hPa | 0 mm | - | 0 W/m² | - |
| 1787892016 | 22.78° C | 48% | 1028.8 hPa | 0 mm | - | 0 W/m² | - |
| 1787891716 | 23.33° C | 46% | 1028.8 hPa | 0 mm | - | 0 W/m² | - |
| 1787891415 | 23.33° C | 45% | 1028.7 hPa | 0 mm | - | 0 W/m² | - |
| 1787891115 | 23.33° C | 44% | 1028.9 hPa | 0 mm | - | 0 W/m² | - |
| 1787890815 | 23.33° C | 44% | 1028.9 hPa | 0 mm | - | 0 W/m² | - |
| 1787890515 | 23.33° C | 44% | 1029.2 hPa | 0 mm | - | 0 W/m² | - |
| 1787890215 | 23.89° C | 45% | 1029.4 hPa | 0 mm | - | 0 W/m² | - |
| 1787889915 | 23.89° C | 41% | 1029.5 hPa | 0 mm | - | 0 W/m² | - |
| 1787889615 | 23.89° C | 44% | 1029.8 hPa | 0 mm | - | 0 W/m² | - |
| 1787889315 | 23.89° C | 42% | 1030 hPa | 0 mm | - | 0 W/m² | - |
| 1787889015 | 23.33° C | 43% | 1030.3 hPa | 0 mm | - | 0 W/m² | - |
| 1787888715 | 23.33° C | 45% | 1030.1 hPa | 0 mm | - | 0 W/m² | - |
| 1787888415 | 22.78° C | 47% | 1030 hPa | 0 mm | - | 0 W/m² | - |
| 1787888115 | 22.78° C | 50% | 1029.9 hPa | 0 mm | - | 0 W/m² | - |
| 1787887815 | 23.33° C | 49% | 1029.8 hPa | 0 mm | - | 0 W/m² | - |
| 1787887515 | 23.33° C | 49% | 1029.5 hPa | 0 mm | - | 0 W/m² | - |
| 1787887215 | 23.33° C | 48% | 1029.5 hPa | 0 mm | - | 0 W/m² | - |
* Rain latest hour (hover to see other rain measurements)
** Current wind speed in m/s (hover to see current wind gust speed)